Retour au catalogue

FENGYUN 1C DEB

ActifSSO
NORAD 38495·DEBRIS·🇨🇳 China

Lancé May 10, 1999 depuis Taiyuan Satellite Launch Center

Loading…

Prochains Passages (prochaines 24 heures)

TLE

FraisSource: Space-Track

Époque: Sep 12, 2026, 05:44 UTC

1 38495U 99025ESE 26255.23939735  .00001647  00000-0  15306-2 0  9990
2 38495  99.1556 263.7063 0249487 142.5475 219.3351 13.70425779648574

Suivez FENGYUN 1C DEB en temps réel avec AllMySat

Download on the App Store